Date String (YYYY-MM-DD hh:mm:ss) UTC,Instrument flags,Ambient pressure (hPa),Sample flow (lpm),Bypass flow (lpm),Sample temperature (°C),Ambient temperature (°C),ASC tube jacket temperature (°C),LED temperature (°C),Box temperature (°C),Sample RH (%),Span deviation,Mass concentration (μg/m³),Mass concentration (μg/m³),Mass concentration (μg/m³)
DateTimeUTC,F1_M11,P_M11,Q1_M11,Q2_M11,T1_M11,T2_M11,T3_M11,T4_M11,T5_M11,U1_M11,ZSPAN_M11,X0_M11,X2_M11,X1_M11
2021-08-31 18:00:00,,0823.7,5.00,0.00,29.0,25.9,00.0,38.0,30.4,19.2,0002.2,0043.13,0019.88,0017.69
2021-08-31 18:01:00,,0823.7,5.00,0.00,28.9,26.2,00.0,38.0,30.5,19.6,0002.3,0044.24,0019.92,0017.73
2021-08-31 18:02:00,,0823.7,5.01,0.00,28.9,26.6,00.0,38.0,30.6,19.9,0002.1,0043.80,0019.95,0017.73
2021-08-31 18:03:00,,0823.7,4.99,0.00,28.9,27.0,00.0,38.0,30.7,21.1,0002.1,0041.83,0019.94,0017.74
2021-08-31 18:04:00,,0823.7,5.00,0.00,29.0,27.4,00.0,38.0,30.8,20.3,0002.5,0043.76,0019.93,0017.77
2021-08-31 18:05:00,,0823.7,4.99,0.00,29.1,27.8,00.0,38.0,30.9,19.7,0002.4,0043.63,0019.99,0017.83
2021-08-31 18:06:00,,0823.7,5.01,0.00,29.1,27.9,00.0,38.0,31.0,18.8,0002.2,0042.69,0019.97,0017.88
2021-08-31 18:07:00,,0823.7,4.99,0.00,29.1,26.8,00.0,38.0,30.7,19.1,0002.1,0042.83,0019.87,0017.93
2021-08-31 18:08:00,,0823.7,5.00,0.00,28.9,25.8,00.0,38.0,30.4,19.4,0001.8,0042.46,0019.78,0017.93
2021-08-31 18:09:00,,0823.7,5.01,0.00,28.9,26.2,00.0,38.0,30.4,19.9,0001.6,0040.74,0019.80,0017.95
2021-08-31 18:10:00,,0823.7,4.98,0.00,28.9,26.6,00.0,38.0,30.5,20.4,0001.5,0038.87,0019.75,0017.97
2021-08-31 18:11:00,,0823.7,5.00,0.00,28.9,27.0,00.0,38.0,30.7,20.6,0001.5,0037.92,0019.72,0017.99
2021-08-31 18:12:00,,0823.7,5.01,0.00,29.0,27.4,00.0,38.0,30.8,19.1,0001.3,0037.86,0019.74,0018.01
2021-08-31 18:13:00,,0823.7,5.00,0.00,29.0,27.8,00.0,38.0,30.9,19.8,0001.3,0038.65,0019.79,0018.05
2021-08-31 18:14:00,,0823.7,5.00,0.00,29.1,27.9,00.0,38.0,30.9,19.6,0001.3,0038.69,0019.91,0018.10
2021-08-31 18:15:00,,0823.7,5.00,0.00,29.0,26.7,00.0,38.0,30.6,20.2,0001.4,0037.19,0020.00,0018.11
2021-08-31 18:16:00,,0823.7,5.01,0.00,28.9,25.7,00.0,38.0,30.3,18.1,0001.3,0036.72,0020.02,0018.12
2021-08-31 18:17:00,,0823.7,5.00,0.00,28.8,26.1,00.0,38.0,30.4,17.7,0001.3,0036.94,0020.04,0018.14
2021-08-31 18:18:00,,0823.7,5.00,0.00,28.8,26.5,00.0,38.0,30.5,18.0,0001.2,0036.24,0020.12,0018.15
2021-08-31 18:19:00,,0823.7,5.00,0.00,28.9,26.9,00.0,37.9,30.6,17.4,0001.4,0035.95,0020.11,0018.14
2021-08-31 18:20:00,,0823.7,5.01,0.00,28.9,27.3,00.0,37.9,30.8,18.1,0001.2,0036.15,0020.07,0018.14
2021-08-31 18:21:00,,0823.7,4.99,0.00,29.0,27.7,00.0,38.0,30.8,19.1,0001.5,0035.98,0020.07,0018.14
2021-08-31 18:22:00,,0823.7,5.00,0.00,29.0,27.9,00.0,38.0,30.9,19.5,0001.5,0036.92,0020.05,0018.15
2021-08-31 18:23:00,,0823.6,5.00,0.00,29.0,26.8,00.0,38.0,30.6,18.1,0001.4,0038.17,0020.08,0018.14
2021-08-31 18:24:00,,0823.6,5.00,0.00,28.9,25.7,00.0,37.9,30.3,17.9,0001.4,0037.55,0020.02,0018.15
2021-08-31 18:25:00,,0823.6,5.00,0.00,28.8,26.1,00.0,37.9,30.4,18.5,0001.5,0037.60,0019.95,0018.15
2021-08-31 18:26:00,,0823.5,5.01,0.00,28.8,26.5,00.0,37.9,30.5,19.1,0001.4,0036.88,0019.93,0018.17
2021-08-31 18:27:00,,0823.4,5.00,0.00,28.8,26.9,00.0,37.9,30.6,19.2,0001.5,0036.27,0019.96,0018.20
2021-08-31 18:28:00,,0823.4,5.00,0.00,28.9,27.3,00.0,37.9,30.7,19.2,0001.5,0035.98,0020.03,0018.24
2021-08-31 18:29:00,,0823.4,5.01,0.00,28.9,27.7,00.0,37.9,30.8,19.0,0001.7,0037.64,0020.08,0018.27
2021-08-31 18:30:00,,0823.4,5.00,0.00,29.0,27.9,00.0,37.9,30.9,17.7,0002.1,0039.30,0020.24,0018.34
2021-08-31 18:31:00,,0823.4,5.00,0.00,29.0,27.6,00.0,38.0,30.9,17.4,0002.3,0040.87,0020.34,0018.43
2021-08-31 18:32:00,,0823.4,5.00,0.00,28.9,26.1,00.0,37.9,30.4,17.5,0001.9,0042.24,0020.35,0018.49
2021-08-31 18:33:00,,0823.4,5.00,0.00,28.8,25.9,00.0,37.9,30.3,17.4,0001.7,0043.92,0020.42,0018.54
2021-08-31 18:34:00,,0823.4,5.00,0.00,28.8,26.4,00.0,37.9,30.5,17.5,0001.7,0044.22,0020.45,0018.57
2021-08-31 18:35:00,,0823.4,5.00,0.00,28.8,26.7,00.0,37.9,30.6,17.5,0001.7,0044.45,0020.56,0018.60
2021-08-31 18:36:00,,0823.3,5.01,0.00,28.9,27.2,00.0,37.9,30.7,17.1,0001.6,0043.83,0020.61,0018.62
2021-08-31 18:37:00,,0823.4,5.00,0.00,28.9,27.5,00.0,37.9,30.8,16.8,0001.8,0044.57,0020.63,0018.62
2021-08-31 18:38:00,,0823.3,5.00,0.00,29.0,27.8,00.0,37.9,30.9,16.8,0001.9,0046.62,0020.60,0018.61
2021-08-31 18:39:00,,0823.4,5.00,0.00,29.1,28.0,00.0,38.0,31.0,17.0,0001.7,0047.47,0020.55,0018.59
2021-08-31 18:40:00,,0823.4,5.01,0.00,29.0,26.9,00.0,38.0,30.7,16.8,0001.6,0046.32,0020.43,0018.55
2021-08-31 18:41:00,,0823.4,4.99,0.00,28.9,25.8,00.0,38.0,30.3,17.0,0001.4,0044.42,0020.31,0018.52
2021-08-31 18:42:00,,0823.4,5.00,0.00,28.8,26.1,00.0,38.0,30.4,16.7,0001.6,0042.73,0020.29,0018.48
2021-08-31 18:43:00,,0823.4,4.99,0.00,28.8,26.6,00.0,37.9,30.5,16.1,0001.9,0042.08,0020.34,0018.47
2021-08-31 18:44:00,,0823.3,5.01,0.00,28.9,27.0,00.0,37.9,30.6,15.2,0002.1,0041.00,0020.39,0018.50
2021-08-31 18:45:00,,0823.3,5.00,0.00,28.9,27.4,00.0,37.9,30.7,15.9,0002.4,0039.18,0020.40,0018.52
2021-08-31 18:46:00,,0823.3,5.00,0.00,29.0,27.7,00.0,37.9,30.8,16.2,0002.6,0038.44,0020.32,0018.54
2021-08-31 18:47:00,,0823.3,4.98,0.00,29.0,27.4,00.0,38.0,30.8,16.4,0002.6,0039.44,0020.29,0018.55
2021-08-31 18:48:00,,0823.3,5.01,0.00,28.9,26.0,00.0,37.9,30.4,16.7,0002.4,0039.53,0020.23,0018.56
2021-08-31 18:49:00,,0823.2,5.01,0.00,28.8,25.8,00.0,37.9,30.3,16.3,0002.2,0038.64,0020.23,0018.60
2021-08-31 18:50:00,,0823.2,4.99,0.00,28.8,26.3,00.0,37.9,30.5,16.8,0002.4,0039.08,0020.21,0018.60
2021-08-31 18:51:00,,0823.2,5.01,0.00,28.8,26.7,00.0,37.9,30.5,16.8,0002.5,0038.60,0020.21,0018.58
2021-08-31 18:52:00,,0823.3,5.00,0.00,28.8,27.1,00.0,37.9,30.6,17.0,0002.6,0039.41,0020.28,0018.57
2021-08-31 18:53:00,,0823.2,5.00,0.00,28.9,27.5,00.0,37.9,30.8,16.3,0002.3,0039.45,0020.29,0018.56
2021-08-31 18:54:00,,0823.2,5.00,0.00,29.0,27.8,00.0,37.9,30.9,16.0,0002.1,0038.92,0020.26,0018.54
2021-08-31 18:55:00,,0823.3,5.01,0.00,29.0,28.0,00.0,37.9,30.9,15.9,0001.8,0037.94,0020.21,0018.50
2021-08-31 18:56:00,,0823.2,4.99,0.00,29.0,26.9,00.0,37.9,30.7,16.2,0001.6,0037.08,0020.23,0018.49
2021-08-31 18:57:00,,0823.1,5.01,0.00,28.9,25.7,00.0,37.9,30.3,16.7,0001.3,0036.40,0020.29,0018.49
2021-08-31 18:58:00,,0823.2,5.00,0.00,28.8,26.1,00.0,37.9,30.4,16.5,0001.1,0036.05,0020.25,0018.48
2021-08-31 18:59:00,,0823.1,4.99,0.00,28.8,26.5,00.0,37.9,30.5,15.9,0001.1,0035.62,0020.27,0018.50
